| time (UTC) | temp F | wind direction | speed knots | gust knots | rain 1hr in | rain 24hr in | rain mn in | humidity % | barometer mb |
| 20260505193306 | 58 | 65 | 1.7 | 6.1 | 0.00 | 0.39 | 0.36 | 83 | 1012.0 |
| 20260505191805 | 58 | 52 | 0.0 | 1.7 | 0.00 | 0.39 | 0.36 | 81 | 1011.7 |
| 20260505191305 | 58 | 5 | 0.0 | 2.6 | 0.00 | 0.39 | 0.36 | 80 | 1011.9 |
| 20260505190806 | 59 | 30 | 0.9 | 1.7 | 0.00 | 0.39 | 0.36 | 78 | 1011.9 |
| 20260505190306 | 59 | 101 | 0.9 | 2.6 | 0.00 | 0.39 | 0.36 | 77 | 1011.8 |
| 20260505184805 | 59 | 35 | 0.9 | 1.7 | 0.00 | 0.39 | 0.36 | 73 | 1011.6 |
| 20260505184305 | 59 | 112 | 0.0 | 1.7 | 0.00 | 0.39 | 0.36 | 72 | 1011.5 |
| 20260505183805 | 59 | 236 | 0.0 | 2.6 | 0.00 | 0.39 | 0.36 | 73 | 1011.4 |
| 20260505183305 | 60 | 228 | 0.0 | 5.2 | 0.00 | 0.39 | 0.36 | 73 | 1011.4 |
| 20260505181805 | 61 | 182 | 0.9 | 2.6 | 0.00 | 0.39 | 0.36 | 69 | 1011.1 |
| 20260505181304 | 61 | 184 | 0.9 | 2.6 | 0.00 | 0.39 | 0.36 | 66 | 1011.4 |
| 20260505180806 | 61 | 196 | 0.9 | 4.3 | 0.00 | 0.39 | 0.36 | 63 | 1011.3 |
| 20260505174805 | 62 | 198 | 1.7 | 7.0 | 0.00 | 0.39 | 0.36 | 63 | 1011.0 |
| 20260505174305 | 62 | 197 | 0.9 | 2.6 | 0.00 | 0.39 | 0.36 | 63 | 1011.1 |
| 20260505173806 | 62 | 195 | 1.7 | 4.3 | 0.00 | 0.39 | 0.36 | 61 | 1011.2 |
| 20260505173305 | 63 | 192 | 0.9 | 4.3 | 0.00 | 0.39 | 0.36 | 60 | 1011.3 |
| 20260505171805 | 65 | 193 | 0.9 | 4.3 | 0.00 | 0.39 | 0.36 | 56 | 1011.0 |
| 20260505171306 | 65 | 206 | 1.7 | 5.2 | 0.00 | 0.40 | 0.36 | 55 | 1010.8 |
| 20260505170804 | 66 | 207 | 2.6 | 4.3 | 0.00 | 0.40 | 0.36 | 53 | 1010.9 |
| 20260505170306 | 67 | 192 | 1.7 | 5.2 | 0.00 | 0.40 | 0.36 | 52 | 1011.1 |
| 20260505164805 | 66 | 208 | 1.7 | 4.3 | 0.00 | 0.40 | 0.36 | 53 | 1011.0 |
| 20260505164304 | 66 | 214 | 0.9 | 8.7 | 0.00 | 0.40 | 0.36 | 54 | 1011.2 |
| 20260505163804 | 67 | 221 | 1.7 | 6.1 | 0.00 | 0.40 | 0.36 | 54 | 1011.0 |
| 20260505163306 | 66 | 201 | 2.6 | 6.1 | 0.00 | 0.40 | 0.36 | 53 | 1011.0 |
| 20260505161806 | 67 | 167 | 1.7 | 4.3 | 0.00 | 0.40 | 0.36 | 55 | 1011.1 |
| 20260505161304 | 68 | 165 | 1.7 | 6.1 | 0.00 | 0.41 | 0.36 | 55 | 1011.1 |
| 20260505160805 | 67 | 214 | 1.7 | 6.1 | 0.00 | 0.41 | 0.36 | 57 | 1011.2 |
| 20260505160304 | 67 | 206 | 1.7 | 6.1 | 0.00 | 0.41 | 0.36 | 57 | 1011.3 |
| 20260505153304 | 67 | 209 | 2.6 | 13.0 | 0.00 | 0.41 | 0.36 | 57 | 1010.7 |
| 20260505151804 | 67 | 234 | 1.7 | 10.4 | 0.00 | 0.41 | 0.36 | 61 | 1010.9 |
| 20260505151306 | 68 | 196 | 1.7 | 5.2 | 0.00 | 0.41 | 0.36 | 64 | 1010.7 |
| 20260505150805 | 68 | 217 | 2.6 | 6.1 | 0.00 | 0.41 | 0.36 | 63 | 1010.8 |
| 20260505150304 | 68 | 180 | 1.7 | 12.2 | 0.00 | 0.41 | 0.36 | 63 | 1010.8 |
| 20260505124805 | 70 | 199 | 2.6 | 5.2 | 0.00 | 0.41 | 0.36 | 61 | 1010.8 |
| 20260505124305 | 70 | 219 | 0.9 | 6.1 | 0.00 | 0.41 | 0.36 | 64 | 1010.6 |
| 20260505123805 | 69 | 202 | 0.9 | 4.3 | 0.00 | 0.41 | 0.36 | 66 | 1011.0 |
| 20260505123304 | 68 | 187 | 1.7 | 7.0 | 0.00 | 0.41 | 0.36 | 67 | 1011.2 |
| 20260505121806 | 68 | 21 | 1.7 | 2.6 | 0.00 | 0.41 | 0.36 | 67 | 1011.3 |
| 20260505120804 | 66 | 297 | 0.9 | 4.3 | 0.00 | 0.41 | 0.36 | 70 | 1011.3 |
| 20260505120305 | 66 | 339 | 1.7 | 4.3 | 0.00 | 0.41 | 0.36 | 73 | 1011.3 |
| 20260505114805 | 67 | 17 | 0.9 | 1.7 | 0.00 | 0.41 | 0.36 | 74 | 1011.6 |
| 20260505114305 | 66 | 29 | 0.9 | 2.6 | 0.00 | 0.41 | 0.36 | 76 | 1011.5 |
| 20260505113804 | 66 | 78 | 0.9 | 4.3 | 0.00 | 0.41 | 0.36 | 75 | 1011.7 |
| 20260505113305 | 65 | 29 | 1.7 | 4.3 | 0.00 | 0.41 | 0.36 | 73 | 1011.4 |
| 20260505111804 | 65 | 76 | 1.7 | 2.6 | 0.00 | 0.41 | 0.36 | 75 | 1011.8 |
| 20260505111304 | 67 | 3 | 1.7 | 4.3 | 0.00 | 0.41 | 0.36 | 73 | 1011.7 |
| 20260505110806 | 66 | 15 | 1.7 | 4.3 | 0.00 | 0.41 | 0.36 | 75 | 1011.9 |
| 20260505110304 | 66 | 48 | 0.9 | 7.8 | 0.00 | 0.41 | 0.36 | 78 | 1011.7 |
| 20260505101804 | 67 | 310 | 0.9 | 4.3 | 0.01 | 0.41 | 0.36 | 76 | 1011.9 |
| 20260505101305 | 67 | 44 | 1.7 | 4.3 | 0.01 | 0.41 | 0.36 | 75 | 1011.8 |
| 20260505100306 | 66 | 210 | 0.9 | 4.3 | 0.01 | 0.41 | 0.36 | 83 | 1011.6 |
| 20260505094805 | 61 | 119 | 0.0 | 0.9 | 0.01 | 0.41 | 0.36 | 88 | 1012.3 |
| 20260505094304 | 60 | 232 | 0.0 | 2.6 | 0.01 | 0.41 | 0.36 | 88 | 1012.5 |
| 20260505093804 | 61 | 299 | 0.9 | 2.6 | 0.01 | 0.41 | 0.36 | 87 | 1012.2 |
| 20260505093304 | 61 | 252 | 0.0 | 4.3 | 0.00 | 0.40 | 0.36 | 87 | 1012.3 |
| 20260505091804 | 62 | 172 | 0.9 | 1.7 | 0.00 | 0.40 | 0.35 | 81 | 1012.3 |
| 20260505091304 | 62 | 214 | 0.9 | 1.7 | 0.00 | 0.40 | 0.35 | 82 | 1012.0 |
| 20260505090304 | 64 | 202 | 0.9 | 5.2 | 0.00 | 0.40 | 0.35 | 80 | 1012.0 |
| 20260505084804 | 64 | 198 | 1.7 | 4.3 | 0.00 | 0.40 | 0.35 | 81 | 1011.5 |
| 20260505084305 | 65 | 219 | 1.7 | 4.3 | 0.00 | 0.40 | 0.35 | 80 | 1011.5 |
| 20260505083304 | 65 | 155 | 0.9 | 4.3 | 0.00 | 0.40 | 0.35 | 85 | 1011.5 |
| 20260505081804 | 62 | 192 | 0.9 | 5.2 | 0.00 | 0.40 | 0.35 | 90 | 1011.8 |
| 20260505080805 | 62 | 167 | 0.9 | 2.6 | 0.00 | 0.40 | 0.35 | 88 | 1011.9 |
| 20260505080304 | 61 | 127 | 0.9 | 5.2 | 0.00 | 0.40 | 0.35 | 91 | 1012.1 |
| 20260505074806 | 61 | 112 | 2.6 | 4.3 | 0.00 | 0.40 | 0.35 | 88 | 1012.0 |
| 20260505074304 | 60 | 109 | 0.9 | 4.3 | 0.00 | 0.40 | 0.35 | 94 | 1012.0 |
| 20260505073804 | 59 | 121 | 0.9 | 2.6 | 0.00 | 0.40 | 0.35 | 94 | 1012.1 |
| 20260505073304 | 58 | 126 | 0.0 | 4.3 | 0.00 | 0.40 | 0.35 | 94 | 1012.2 |
| 20260505071804 | 58 | 139 | 0.9 | 2.6 | 0.00 | 0.40 | 0.35 | 96 | 1012.3 |
| 20260505070803 | 57 | 169 | 1.7 | 2.6 | 0.00 | 0.40 | 0.35 | 96 | 1012.2 |
| 20260505070304 | 58 | 179 | 0.0 | 2.6 | 0.00 | 0.40 | 0.35 | 96 | 1012.1 |
| 20260505064803 | 59 | 214 | 0.0 | 2.6 | 0.00 | 0.40 | 0.35 | 98 | 1011.8 |
| 20260505064304 | 58 | 136 | 0.9 | 1.7 | 0.00 | 0.40 | 0.35 | 98 | 1011.8 |
| 20260505063804 | 57 | 330 | 0.9 | 2.6 | 0.00 | 0.40 | 0.35 | 98 | 1011.9 |
| 20260505063305 | 57 | 128 | 0.9 | 1.7 | 0.00 | 0.40 | 0.35 | 98 | 1011.9 |
| 20260505061804 | 56 | 328 | 0.0 | 0.9 | 0.01 | 0.40 | 0.35 | 98 | 1012.0 |
| 20260505061304 | 56 | 49 | 0.9 | 1.7 | 0.01 | 0.40 | 0.35 | 98 | 1012.1 |
| 20260505060304 | 56 | 229 | 0.0 | 1.7 | 0.01 | 0.40 | 0.35 | 98 | 1012.1 |
| 20260505054803 | 55 | 115 | 0.9 | 1.7 | 0.01 | 0.41 | 0.35 | 98 | 1011.8 |
| 20260505054304 | 55 | 72 | 0.9 | 1.7 | 0.01 | 0.41 | 0.35 | 98 | 1011.9 |
| 20260505053804 | 55 | 115 | 0.0 | 2.6 | 0.01 | 0.42 | 0.35 | 98 | 1011.9 |
| 20260505053304 | 55 | 96 | 0.9 | 1.7 | 0.01 | 0.43 | 0.35 | 98 | 1011.6 |
| 20260505051804 | 54 | 107 | 0.9 | 1.7 | 0.00 | 0.46 | 0.34 | 98 | 1011.8 |
| 20260505050804 | 54 | 110 | 1.7 | 4.3 | 0.00 | 0.48 | 0.34 | 98 | 1011.9 |
| 20260505041304 | 54 | 135 | 1.7 | 4.3 | 0.00 | 0.48 | 0.34 | 98 | 1011.4 |
| 20260505040804 | 54 | 164 | 0.9 | 5.2 | 0.01 | 0.48 | 0.34 | 98 | 1011.5 |
| 20260505034804 | 54 | 107 | 0.9 | 4.3 | 0.06 | 0.48 | 0.34 | 98 | 1011.7 |
| 20260505034303 | 54 | 152 | 1.7 | 5.2 | 0.09 | 0.48 | 0.34 | 98 | 1011.8 |
| 20260505033804 | 54 | 117 | 0.9 | 7.0 | 0.12 | 0.48 | 0.34 | 98 | 1011.7 |
| 20260505033304 | 54 | 109 | 1.7 | 7.0 | 0.12 | 0.48 | 0.34 | 98 | 1011.7 |
| 20260505031804 | 54 | 101 | 0.9 | 1.7 | 0.20 | 0.48 | 0.34 | 98 | 1011.7 |
| 20260505031304 | 54 | 28 | 0.0 | 1.7 | 0.20 | 0.48 | 0.34 | 98 | 1011.8 |
| 20260505030804 | 54 | 154 | 0.9 | 4.3 | 0.20 | 0.48 | 0.33 | 98 | 1011.7 |
| 20260505030304 | 54 | 120 | 1.7 | 5.2 | 0.20 | 0.47 | 0.33 | 98 | 1012.1 |
| 20260505024806 | 54 | 66 | 0.0 | 1.7 | 0.15 | 0.43 | 0.29 | 98 | 1012.2 |
| 20260505024305 | 54 | 293 | 0.0 | 1.7 | 0.11 | 0.39 | 0.25 | 98 | 1012.3 |
| 20260505023805 | 54 | 38 | 0.9 | 1.7 | 0.09 | 0.37 | 0.22 | 97 | 1012.2 |
| 20260505023305 | 54 | 41 | 0.9 | 4.3 | 0.09 | 0.36 | 0.22 | 97 | 1012.1 |
| 20260505021805 | 54 | 295 | 0.9 | 4.3 | 0.00 | 0.28 | 0.14 | 97 | 1012.4 |
| 20260505021307 | 54 | 38 | 0.9 | 6.1 | 0.00 | 0.28 | 0.13 | 97 | 1012.1 |
| 20260505020805 | 54 | 78 | 2.6 | 7.0 | 0.00 | 0.28 | 0.13 | 97 | 1012.1 |
| 20260505020305 | 54 | 85 | 4.3 | 7.8 | 0.00 | 0.28 | 0.13 | 97 | 1012.2 |
| 20260505014805 | 54 | 94 | 0.9 | 7.0 | 0.00 | 0.28 | 0.13 | 97 | 1012.2 |
| 20260505013805 | 54 | 114 | 2.6 | 7.0 | 0.00 | 0.28 | 0.13 | 97 | 1012.3 |
| 20260505013307 | 54 | 121 | 2.6 | 7.8 | 0.00 | 0.28 | 0.13 | 97 | 1012.2 |
| 20260505011306 | 54 | 106 | 2.6 | 5.2 | 0.03 | 0.28 | 0.13 | 97 | 1012.7 |
| 20260505010806 | 54 | 100 | 2.6 | 5.2 | 0.04 | 0.28 | 0.13 | 97 | 1012.7 |
| 20260505010305 | 54 | 172 | 1.7 | 10.4 | 0.04 | 0.28 | 0.13 | 97 | 1012.7 |
| 20260505004305 | 53 | 153 | 0.9 | 10.4 | 0.05 | 0.28 | 0.13 | 97 | 1012.9 |
| 20260505003805 | 53 | 96 | 2.6 | 7.0 | 0.05 | 0.28 | 0.13 | 97 | 1013.1 |
| 20260505003305 | 53 | 114 | 2.6 | 7.8 | 0.05 | 0.28 | 0.13 | 97 | 1013.2 |
| 20260505001806 | 53 | 140 | 0.9 | 5.2 | 0.04 | 0.26 | 0.11 | 97 | 1013.3 |
| 20260505001305 | 53 | 98 | 2.6 | 8.7 | 0.03 | 0.25 | 0.11 | 97 | 1013.5 |
| 20260505000805 | 53 | 122 | 3.5 | 7.8 | 0.03 | 0.24 | 0.10 | 97 | 1013.0 |
| 20260505000305 | 53 | 136 | 2.6 | 8.7 | 0.04 | 0.24 | 0.10 | 97 | 1013.3 |
| 20260504234806 | 54 | 133 | 2.6 | 7.8 | 0.04 | 0.23 | 0.09 | 97 | 1013.2 |
| 20260504234305 | 54 | 143 | 2.6 | 7.0 | 0.05 | 0.23 | 0.09 | 96 | 1012.9 |
| 20260504233805 | 54 | 105 | 3.5 | 11.3 | 0.04 | 0.22 | 0.08 | 96 | 1013.1 |
| 20260504231806 | 55 | 207 | 1.7 | 8.7 | 0.06 | 0.22 | 0.08 | 96 | 1012.8 |
| 20260504224805 | 55 | 106 | 6.1 | 13.9 | 0.04 | 0.19 | 0.04 | 95 | 1013.5 |
| 20260504223806 | 54 | 109 | 2.6 | 11.3 | 0.04 | 0.18 | 0.04 | 95 | 1014.0 |
| 20260504223306 | 54 | 129 | 2.6 | 15.6 | 0.04 | 0.18 | 0.04 | 95 | 1013.8 |
| 20260504221306 | 55 | 100 | 7.0 | 14.8 | 0.02 | 0.15 | 0.01 | 94 | 1013.6 |
| 20260504220805 | 55 | 101 | 6.1 | 15.6 | 0.01 | 0.15 | 0.00 | 94 | 1014.0 |
| 20260504220305 | 55 | 120 | 3.5 | 13.9 | 0.01 | 0.15 | 0.00 | 94 | 1014.0 |
| 20260504214806 | 55 | 114 | 4.3 | 12.2 | 0.00 | 0.14 | 0.14 | 95 | 1014.1 |
| 20260504214305 | 55 | 119 | 7.8 | 19.1 | 0.01 | 0.14 | 0.14 | 95 | 1014.0 |
| 20260504213805 | 55 | 102 | 6.1 | 24.3 | 0.01 | 0.14 | 0.14 | 95 | 1014.2 |
| 20260504213305 | 55 | 106 | 4.3 | 17.4 | 0.01 | 0.14 | 0.14 | 95 | 1014.3 |
| 20260504211805 | 55 | 106 | 4.3 | 20.9 | 0.02 | 0.14 | 0.14 | 95 | 1014.3 |
| 20260504211305 | 55 | 106 | 7.8 | 17.4 | 0.02 | 0.14 | 0.14 | 94 | 1014.3 |
| 20260504210805 | 54 | 110 | 6.1 | 15.6 | 0.02 | 0.14 | 0.14 | 94 | 1014.4 |
| 20260504210305 | 54 | 110 | 8.7 | 19.1 | 0.02 | 0.14 | 0.14 | 94 | 1014.7 |
| 20260504204805 | 54 | 95 | 7.0 | 15.6 | 0.03 | 0.14 | 0.14 | 94 | 1014.8 |
| 20260504204305 | 54 | 102 | 3.5 | 11.3 | 0.02 | 0.13 | 0.13 | 94 | 1015.0 |
| 20260504203806 | 54 | 113 | 2.6 | 7.8 | 0.02 | 0.13 | 0.13 | 93 | 1015.1 |
| 20260504203306 | 54 | 108 | 2.6 | 14.8 | 0.02 | 0.13 | 0.13 | 93 | 1015.0 |
| 20260504201805 | 54 | 102 | 2.6 | 12.2 | 0.01 | 0.12 | 0.12 | 91 | 1015.2 |
| 20260504201305 | 54 | 119 | 2.6 | 7.8 | 0.01 | 0.12 | 0.12 | 91 | 1015.1 |
| 20260504200805 | 54 | 106 | 2.6 | 7.8 | 0.00 | 0.11 | 0.11 | 90 | 1015.3 |
| 20260504194805 | 55 | 99 | 4.3 | 8.7 | 0.00 | 0.11 | 0.11 | 86 | 1015.2 |
| 20260504194305 | 55 | 124 | 4.3 | 13.0 | 0.00 | 0.11 | 0.11 | 86 | 1015.4 |